URO901 EGHH-EKCH

Flight info

Callsign URO901
Flight time 1h 31m
Altitude 39000
Route NORRY DCT ICTAM M197 BRAIN Q295 SOMVA DCT KONOM DCT DOSUR P729 TUDLO
Aircraft A346/H-SDE2E3FGHIJ3J4J5M1RWXY/LB1D1

Departure

Time 2026-05-08 18:58
Airport Bournemouth Airport (EGHH)

Arrival

Time 2026-05-08 20:30
Airport Copenhagen Kastrup Airport (EKCH)
Time Latitude Longitude Altitude Speed Heading
2026-05-08 18:26 50.77906 -1.83396 50 ft 0 kts 86°
2026-05-08 18:46 50.77906 -1.83397 54 ft 1 kts 86°
2026-05-08 18:46 50.77908 -1.83404 54 ft 4 kts 44°
2026-05-08 18:47 50.77894 -1.83423 46 ft 4 kts 54°
2026-05-08 18:47 50.77885 -1.83451 46 ft 4 kts 82°
2026-05-08 18:47 50.77885 -1.83465 46 ft 4 kts 130°
2026-05-08 18:47 50.77902 -1.83481 46 ft 4 kts 160°
2026-05-08 18:48 50.77927 -1.83492 46 ft 4 kts 168°
2026-05-08 18:48 50.77945 -1.83497 46 ft 0 kts 172°
2026-05-08 18:52 50.77944 -1.83497 46 ft 0 kts 172°
2026-05-08 18:53 50.77934 -1.83494 46 ft 3 kts 172°
2026-05-08 18:53 50.77881 -1.83482 50 ft 9 kts 172°
2026-05-08 18:53 50.77836 -1.83474 49 ft 11 kts 176°
2026-05-08 18:53 50.77752 -1.83468 53 ft 13 kts 181°
2026-05-08 18:54 50.77661 -1.83479 52 ft 12 kts 186°
2026-05-08 18:54 50.77588 -1.83549 52 ft 14 kts 245°
2026-05-08 18:54 50.77612 -1.83702 50 ft 16 kts 304°
2026-05-08 18:54 50.77683 -1.83859 51 ft 19 kts 303°
2026-05-08 18:55 50.77836 -1.84268 52 ft 24 kts 300°
2026-05-08 18:55 50.77914 -1.84477 50 ft 15 kts 300°
2026-05-08 18:55 50.77944 -1.84632 53 ft 15 kts 262°
2026-05-08 18:56 50.77918 -1.84808 52 ft 18 kts 256°
2026-05-08 18:56 50.77883 -1.85015 53 ft 21 kts 255°
2026-05-08 18:56 50.77846 -1.85230 52 ft 21 kts 255°
2026-05-08 18:56 50.77808 -1.85471 51 ft 24 kts 261°
2026-05-08 18:57 50.77787 -1.85671 51 ft 11 kts 256°
2026-05-08 18:57 50.77758 -1.85740 51 ft 4 kts 145°
2026-05-08 18:57 50.77765 -1.85681 51 ft 8 kts 68°
2026-05-08 18:57 50.77777 -1.85631 48 ft 0 kts 72°
2026-05-08 18:58 50.77832 -1.85311 51 ft 69 kts 75°
2026-05-08 18:58 50.78019 -1.84196 51 ft 138 kts 75°
2026-05-08 18:58 50.78314 -1.82462 212 ft 177 kts 77°
2026-05-08 18:58 50.78633 -1.80528 938 ft 184 kts 78°
2026-05-08 18:59 50.78951 -1.78589 1960 ft 177 kts 77°
2026-05-08 18:59 50.79271 -1.76779 2786 ft 172 kts 77°
2026-05-08 18:59 50.79599 -1.74880 3296 ft 186 kts 78°
2026-05-08 18:59 50.79946 -1.72814 3774 ft 202 kts 77°
2026-05-08 19:00 50.80324 -1.70568 4239 ft 219 kts 77°
2026-05-08 19:00 50.80811 -1.68265 4823 ft 230 kts 62°
2026-05-08 19:00 50.82030 -1.66470 5272 ft 253 kts 31°
2026-05-08 19:00 50.83675 -1.65192 5753 ft 272 kts 25°
2026-05-08 19:01 50.85442 -1.63965 6481 ft 281 kts 25°
2026-05-08 19:01 50.87237 -1.62671 7315 ft 285 kts 26°
2026-05-08 19:01 50.89030 -1.61311 8204 ft 286 kts 26°
2026-05-08 19:01 50.90827 -1.59903 9069 ft 290 kts 27°
2026-05-08 19:02 50.92650 -1.58443 9883 ft 295 kts 27°
2026-05-08 19:02 50.94499 -1.56942 10611 ft 302 kts 27°
2026-05-08 19:02 50.96387 -1.55399 11054 ft 318 kts 27°
2026-05-08 19:02 50.98431 -1.53722 11451 ft 335 kts 27°
2026-05-08 19:03 51.00529 -1.51994 11826 ft 353 kts 27°
2026-05-08 19:03 51.02767 -1.50149 12168 ft 371 kts 27°
2026-05-08 19:03 51.05108 -1.48215 12541 ft 387 kts 27°
2026-05-08 19:03 51.07539 -1.46203 13189 ft 395 kts 27°
2026-05-08 19:04 51.09992 -1.44170 13988 ft 398 kts 27°
2026-05-08 19:04 51.12462 -1.42121 14683 ft 403 kts 27°
2026-05-08 19:04 51.14960 -1.40049 15355 ft 407 kts 27°
2026-05-08 19:04 51.17490 -1.37946 16041 ft 412 kts 27°
2026-05-08 19:05 51.20045 -1.35817 16697 ft 416 kts 27°
2026-05-08 19:05 51.22631 -1.33660 17357 ft 421 kts 28°
2026-05-08 19:05 51.25243 -1.31478 17994 ft 426 kts 28°
2026-05-08 19:05 51.27904 -1.29251 18611 ft 431 kts 28°
2026-05-08 19:06 51.30571 -1.27014 19172 ft 435 kts 28°
2026-05-08 19:06 51.33266 -1.24750 19754 ft 439 kts 28°
2026-05-08 19:06 51.35946 -1.22498 20336 ft 442 kts 27°
2026-05-08 19:06 51.38681 -1.20197 20902 ft 446 kts 27°
2026-05-08 19:07 51.41443 -1.17870 21457 ft 450 kts 27°
2026-05-08 19:07 51.44244 -1.15598 22020 ft 453 kts 22°
2026-05-08 19:07 51.47304 -1.14357 22516 ft 455 kts
2026-05-08 19:07 51.50438 -1.13544 23144 ft 458 kts 12°
2026-05-08 19:08 51.53450 -1.11716 23611 ft 465 kts 28°
2026-05-08 19:08 51.55998 -1.08503 24027 ft 469 kts 47°
2026-05-08 19:08 51.57803 -1.04127 24475 ft 472 kts 66°
2026-05-08 19:08 51.58675 -0.99045 24870 ft 473 kts 85°
2026-05-08 19:09 51.58538 -0.93734 25274 ft 473 kts 101°
2026-05-08 19:09 51.58052 -0.88455 25735 ft 477 kts 95°
2026-05-08 19:09 51.58249 -0.82988 26029 ft 484 kts 79°
2026-05-08 19:09 51.58983 -0.77668 26510 ft 486 kts 77°
2026-05-08 19:10 51.59776 -0.72327 26917 ft 490 kts 76°
2026-05-08 19:10 51.60601 -0.66965 27290 ft 495 kts 76°
2026-05-08 19:10 51.61441 -0.61580 27694 ft 498 kts 75°
2026-05-08 19:10 51.62292 -0.56147 28096 ft 502 kts 75°
2026-05-08 19:11 51.63147 -0.50675 28603 ft 502 kts 75°
2026-05-08 19:11 51.63984 -0.45292 29220 ft 501 kts 75°
2026-05-08 19:11 51.64830 -0.39835 29889 ft 500 kts 75°
2026-05-08 19:11 51.65668 -0.34405 30423 ft 500 kts 75°
2026-05-08 19:12 51.66505 -0.28957 30893 ft 499 kts 75°
2026-05-08 19:12 51.67337 -0.23523 31389 ft 498 kts 75°
2026-05-08 19:12 51.68214 -0.18114 31888 ft 497 kts 73°
2026-05-08 19:12 51.69138 -0.12758 32397 ft 496 kts 73°
2026-05-08 19:13 51.69902 -0.08065 32828 ft 495 kts 74°
2026-05-08 19:13 51.70750 -0.02678 33321 ft 494 kts 74°
2026-05-08 19:13 51.71571 0.02626 33779 ft 492 kts 74°
2026-05-08 19:13 51.72245 0.06995 34204 ft 491 kts 74°
2026-05-08 19:14 51.73062 0.12275 34640 ft 489 kts 74°
2026-05-08 19:14 51.73889 0.17621 35038 ft 488 kts 74°
2026-05-08 19:14 51.74711 0.22951 35405 ft 487 kts 74°
2026-05-08 19:14 51.75524 0.28246 35761 ft 487 kts 74°
2026-05-08 19:15 51.76340 0.33573 36103 ft 486 kts 75°
2026-05-08 19:15 51.77148 0.38875 36434 ft 486 kts 75°
2026-05-08 19:15 51.77944 0.44114 36751 ft 485 kts 75°
2026-05-08 19:15 51.78751 0.49454 37049 ft 485 kts 75°
2026-05-08 19:16 51.79546 0.54739 37339 ft 484 kts 75°
2026-05-08 19:16 51.80360 0.60032 37619 ft 483 kts 73°
2026-05-08 19:16 51.81314 0.65241 37832 ft 484 kts 70°
2026-05-08 19:16 51.82455 0.70388 37999 ft 484 kts 66°
2026-05-08 19:17 51.83736 0.75438 38170 ft 485 kts 65°
2026-05-08 19:17 51.85058 0.80477 38377 ft 486 kts 65°
2026-05-08 19:17 51.86379 0.85509 38559 ft 486 kts 65°
2026-05-08 19:17 51.87675 0.90495 38728 ft 487 kts 65°
2026-05-08 19:18 51.88988 0.95586 38870 ft 488 kts 65°
2026-05-08 19:18 51.90294 1.00677 39006 ft 488 kts 66°
2026-05-08 19:18 51.91593 1.05753 39125 ft 487 kts 66°
2026-05-08 19:19 51.94185 1.15921 39130 ft 487 kts 66°
2026-05-08 19:19 51.96767 1.26092 39136 ft 487 kts 66°
2026-05-08 19:20 51.99343 1.36286 39141 ft 487 kts 66°
2026-05-08 19:20 52.01906 1.46473 39142 ft 487 kts 66°
2026-05-08 19:21 52.04456 1.56652 39154 ft 486 kts 66°
2026-05-08 19:21 52.06978 1.66768 39150 ft 485 kts 66°
2026-05-08 19:22 52.09500 1.76933 39149 ft 485 kts 66°
2026-05-08 19:22 52.12021 1.87138 39149 ft 485 kts 66°
2026-05-08 19:23 52.14537 1.97370 39156 ft 485 kts 66°
2026-05-08 19:23 52.17037 2.07590 39155 ft 485 kts 66°
2026-05-08 19:24 52.19530 2.17819 39152 ft 485 kts 67°
2026-05-08 19:24 52.22018 2.28080 39154 ft 485 kts 67°
2026-05-08 19:25 52.24474 2.38262 39157 ft 485 kts 67°
2026-05-08 19:25 52.26940 2.48535 39164 ft 485 kts 67°
2026-05-08 19:26 52.29628 2.58663 39157 ft 485 kts 62°
2026-05-08 19:26 52.32954 2.68238 39156 ft 483 kts 55°
2026-05-08 19:27 52.36886 2.77133 39160 ft 482 kts 50°
2026-05-08 19:27 52.41084 2.85711 39159 ft 482 kts 49°
2026-05-08 19:28 52.45279 2.94277 39159 ft 482 kts 49°
2026-05-08 19:28 52.49454 3.02864 39165 ft 483 kts 49°
2026-05-08 19:29 52.53647 3.11529 39160 ft 484 kts 49°
2026-05-08 19:29 52.57832 3.20211 39156 ft 484 kts 49°
2026-05-08 19:30 52.62015 3.28922 39160 ft 484 kts 50°
2026-05-08 19:30 52.66191 3.37648 39163 ft 484 kts 50°
2026-05-08 19:31 52.70327 3.46322 39162 ft 484 kts 50°
2026-05-08 19:31 52.74499 3.55101 39180 ft 486 kts 50°
2026-05-08 19:32 52.78670 3.63906 39166 ft 486 kts 50°
2026-05-08 19:32 52.82837 3.72736 39172 ft 486 kts 50°
2026-05-08 19:33 52.86994 3.81574 39169 ft 486 kts 50°
2026-05-08 19:33 52.91147 3.90434 39163 ft 486 kts 50°
2026-05-08 19:34 52.95297 3.99319 39182 ft 487 kts 50°
2026-05-08 19:34 52.99446 4.08236 39175 ft 488 kts 50°
2026-05-08 19:35 53.03568 4.17125 39168 ft 488 kts 50°
2026-05-08 19:35 53.07720 4.26108 39173 ft 488 kts 50°
2026-05-08 19:36 53.11851 4.35079 39167 ft 488 kts 50°
2026-05-08 19:36 53.15984 4.44086 39169 ft 488 kts 50°
2026-05-08 19:37 53.20105 4.53100 39174 ft 489 kts 50°
2026-05-08 19:37 53.24231 4.62156 39175 ft 489 kts 50°
2026-05-08 19:38 53.28317 4.71157 39169 ft 489 kts 50°
2026-05-08 19:38 53.32430 4.80250 39166 ft 489 kts 51°
2026-05-08 19:39 53.36539 4.89368 39170 ft 489 kts 51°
2026-05-08 19:39 53.40635 4.98490 39173 ft 489 kts 51°
2026-05-08 19:40 53.44722 5.07625 39193 ft 489 kts 51°
2026-05-08 19:40 53.48112 5.15225 39195 ft 489 kts 51°
2026-05-08 19:41 53.52190 5.24402 39193 ft 490 kts 51°
2026-05-08 19:41 53.56269 5.33613 39186 ft 490 kts 51°
2026-05-08 19:42 53.60331 5.42824 39196 ft 490 kts 51°
2026-05-08 19:42 53.64244 5.52236 39195 ft 492 kts 56°
2026-05-08 19:43 53.67773 5.62053 39188 ft 492 kts 57°
2026-05-08 19:43 53.71279 5.71996 39192 ft 492 kts 57°
2026-05-08 19:44 53.74787 5.81962 39191 ft 493 kts 57°
2026-05-08 19:44 53.78281 5.91904 39191 ft 493 kts 57°
2026-05-08 19:45 53.81773 6.01876 39199 ft 492 kts 57°
2026-05-08 19:45 53.85263 6.11878 39206 ft 493 kts 57°
2026-05-08 19:46 53.88747 6.21905 39206 ft 493 kts 57°
2026-05-08 19:46 53.93955 6.36970 39206 ft 493 kts 57°
2026-05-08 19:47 53.97395 6.46970 39212 ft 493 kts 58°
2026-05-08 19:47 54.00852 6.57063 39213 ft 493 kts 58°
2026-05-08 19:48 54.04297 6.67161 39214 ft 493 kts 58°
2026-05-08 19:48 54.07737 6.77286 39225 ft 493 kts 58°
2026-05-08 19:49 54.11166 6.87423 39221 ft 493 kts 58°
2026-05-08 19:49 54.14588 6.97576 39223 ft 493 kts 58°
2026-05-08 19:50 54.17972 7.07661 39218 ft 493 kts 58°
2026-05-08 19:50 54.21377 7.17850 39218 ft 493 kts 58°
2026-05-08 19:51 54.24772 7.28055 39224 ft 493 kts 58°
2026-05-08 19:51 54.28152 7.38256 39230 ft 492 kts 58°
2026-05-08 19:52 54.31531 7.48493 39219 ft 492 kts 59°
2026-05-08 19:52 54.34899 7.58742 39231 ft 493 kts 59°
2026-05-08 19:53 54.38255 7.68999 39229 ft 493 kts 59°
2026-05-08 19:53 54.41587 7.79226 39233 ft 493 kts 59°
2026-05-08 19:54 54.44926 7.89515 39232 ft 493 kts 59°
2026-05-08 19:54 54.48258 7.99831 39232 ft 493 kts 59°
2026-05-08 19:55 54.51582 8.10160 39231 ft 493 kts 59°
2026-05-08 19:55 54.54905 8.20532 39235 ft 493 kts 59°
2026-05-08 19:56 54.58215 8.30915 39231 ft 493 kts 59°
2026-05-08 19:56 54.61516 8.41308 39237 ft 493 kts 59°
2026-05-08 19:57 54.64790 8.51663 39229 ft 493 kts 60°
2026-05-08 19:57 54.68073 8.62089 39101 ft 494 kts 60°
2026-05-08 19:58 54.69712 8.67313 38871 ft 494 kts 60°
2026-05-08 19:58 54.71352 8.72547 38600 ft 494 kts 60°
2026-05-08 19:58 54.72986 8.77778 38254 ft 494 kts 60°
2026-05-08 19:58 54.74615 8.83008 37850 ft 493 kts 60°
2026-05-08 19:59 54.76241 8.88236 37359 ft 492 kts 60°
2026-05-08 19:59 54.77865 8.93470 36824 ft 491 kts 60°
2026-05-08 19:59 54.79484 8.98701 36252 ft 490 kts 59°
2026-05-08 19:59 54.81091 9.03905 35690 ft 489 kts 59°
2026-05-08 20:00 54.82676 9.09047 35117 ft 488 kts 59°
2026-05-08 20:00 54.84363 9.14158 34528 ft 486 kts 56°
2026-05-08 20:00 54.86201 9.19078 33890 ft 484 kts 52°
2026-05-08 20:00 54.88189 9.23785 33228 ft 482 kts 49°
2026-05-08 20:01 54.90304 9.28248 32620 ft 479 kts 46°
2026-05-08 20:01 54.92500 9.32612 31997 ft 478 kts 45°
2026-05-08 20:01 54.94711 9.36942 31340 ft 478 kts 45°
2026-05-08 20:01 54.96927 9.41283 30711 ft 478 kts 45°
2026-05-08 20:02 54.99129 9.45616 30036 ft 477 kts 45°
2026-05-08 20:02 55.01321 9.49945 29419 ft 474 kts 45°
2026-05-08 20:02 55.03493 9.54254 29094 ft 472 kts 45°
2026-05-08 20:02 55.05637 9.58517 28319 ft 474 kts 46°
2026-05-08 20:03 55.07814 9.62881 27543 ft 475 kts 48°
2026-05-08 20:03 55.09733 9.67554 27132 ft 471 kts 56°
2026-05-08 20:03 55.11269 9.72588 26699 ft 467 kts 63°
2026-05-08 20:03 55.12418 9.77879 26280 ft 463 kts 69°
2026-05-08 20:04 55.13390 9.83223 25876 ft 458 kts 71°
2026-05-08 20:04 55.14320 9.88536 25468 ft 454 kts 71°
2026-05-08 20:04 55.15242 9.93836 25057 ft 454 kts 72°
2026-05-08 20:04 55.16164 9.99100 24635 ft 450 kts 72°
2026-05-08 20:05 55.17079 10.04319 24230 ft 447 kts 72°
2026-05-08 20:05 55.17988 10.09502 23814 ft 443 kts 72°
2026-05-08 20:05 55.18890 10.14642 23333 ft 439 kts 72°
2026-05-08 20:05 55.19785 10.19745 22903 ft 435 kts 72°
2026-05-08 20:06 55.20669 10.24796 22469 ft 431 kts 72°
2026-05-08 20:06 55.21531 10.29734 22067 ft 427 kts 72°
2026-05-08 20:06 55.22393 10.34680 21674 ft 423 kts 72°
2026-05-08 20:06 55.23248 10.39602 21262 ft 419 kts 72°
2026-05-08 20:07 55.24095 10.44487 20866 ft 416 kts 72°
2026-05-08 20:07 55.24932 10.49331 20456 ft 413 kts 72°
2026-05-08 20:07 55.25760 10.54140 20056 ft 410 kts 72°
2026-05-08 20:07 55.26580 10.58911 19643 ft 407 kts 72°
2026-05-08 20:08 55.27394 10.63663 19239 ft 404 kts 72°
2026-05-08 20:08 55.28205 10.68387 18840 ft 402 kts 72°
2026-05-08 20:08 55.29011 10.73072 18416 ft 400 kts 72°
2026-05-08 20:08 55.29812 10.77732 17982 ft 397 kts 72°
2026-05-08 20:09 55.30605 10.82362 17571 ft 393 kts 72°
2026-05-08 20:09 55.31387 10.86951 17161 ft 391 kts 72°
2026-05-08 20:09 55.32161 10.91511 16739 ft 388 kts 73°
2026-05-08 20:09 55.32931 10.96042 16334 ft 386 kts 73°
2026-05-08 20:10 55.33689 11.00554 15945 ft 383 kts 73°
2026-05-08 20:10 55.34437 11.05039 15552 ft 381 kts 73°
2026-05-08 20:10 55.35178 11.09498 15173 ft 378 kts 74°
2026-05-08 20:10 55.35911 11.13930 14777 ft 376 kts 74°
2026-05-08 20:11 55.36640 11.18346 14410 ft 373 kts 74°
2026-05-08 20:11 55.37363 11.22724 14014 ft 371 kts 74°
2026-05-08 20:11 55.38067 11.27013 13596 ft 368 kts 74°
2026-05-08 20:11 55.38776 11.31325 13196 ft 365 kts 75°
2026-05-08 20:12 55.39471 11.35574 12858 ft 354 kts 75°
2026-05-08 20:12 55.40130 11.39616 12685 ft 329 kts 75°
2026-05-08 20:12 55.40738 11.43335 12612 ft 304 kts 75°
2026-05-08 20:12 55.41308 11.46855 12629 ft 297 kts 75°
2026-05-08 20:13 55.41873 11.50361 12582 ft 297 kts 75°
2026-05-08 20:13 55.42441 11.53869 12508 ft 297 kts 75°
2026-05-08 20:13 55.43004 11.57365 12426 ft 297 kts 75°
2026-05-08 20:13 55.43583 11.60859 12335 ft 296 kts 72°
2026-05-08 20:14 55.44403 11.64188 12274 ft 296 kts 62°
2026-05-08 20:14 55.45492 11.67263 12285 ft 296 kts 57°
2026-05-08 20:14 55.46657 11.70254 12291 ft 296 kts 56°
2026-05-08 20:14 55.47833 11.73234 12294 ft 296 kts 56°
2026-05-08 20:15 55.48996 11.76209 12213 ft 291 kts 56°
2026-05-08 20:15 55.50138 11.79149 11831 ft 291 kts 57°
2026-05-08 20:15 55.51281 11.82097 11430 ft 290 kts 57°
2026-05-08 20:15 55.52415 11.85032 11075 ft 288 kts 57°
2026-05-08 20:16 55.53540 11.87953 10591 ft 287 kts 57°
2026-05-08 20:16 55.54653 11.90858 10302 ft 283 kts 57°
2026-05-08 20:16 55.55754 11.93744 9908 ft 283 kts 57°
2026-05-08 20:16 55.56836 11.96582 9548 ft 281 kts 58°
2026-05-08 20:17 55.57922 11.99434 9200 ft 278 kts 58°
2026-05-08 20:17 55.59000 12.02267 8850 ft 276 kts 58°
2026-05-08 20:17 55.60066 12.05074 8511 ft 274 kts 58°
2026-05-08 20:17 55.61130 12.07870 8178 ft 272 kts 57°
2026-05-08 20:18 55.62315 12.10491 7835 ft 272 kts 49°
2026-05-08 20:18 55.63680 12.12810 7501 ft 271 kts 44°
2026-05-08 20:18 55.65107 12.14985 7185 ft 270 kts 43°
2026-05-08 20:18 55.66536 12.17129 6859 ft 268 kts 43°
2026-05-08 20:19 55.67932 12.19312 6520 ft 265 kts 51°
2026-05-08 20:19 55.68785 12.22125 6125 ft 258 kts 80°
2026-05-08 20:19 55.68789 12.25244 5789 ft 252 kts 105°
2026-05-08 20:19 55.68025 12.28009 5441 ft 251 kts 129°
2026-05-08 20:20 55.66748 12.30117 5127 ft 250 kts 138°
2026-05-08 20:20 55.65420 12.32103 4780 ft 249 kts 138°
2026-05-08 20:20 55.64098 12.34079 4460 ft 248 kts 138°
2026-05-08 20:20 55.62789 12.36046 4136 ft 246 kts 137°
2026-05-08 20:21 55.61427 12.37772 3973 ft 247 kts 155°
2026-05-08 20:21 55.59755 12.38759 4007 ft 250 kts 156°
2026-05-08 20:21 55.58106 12.39616 3973 ft 254 kts 173°
2026-05-08 20:21 55.56346 12.39079 4005 ft 262 kts 198°
2026-05-08 20:22 55.54703 12.37722 3948 ft 259 kts 204°
2026-05-08 20:22 55.53104 12.36218 3570 ft 261 kts 205°
2026-05-08 20:22 55.51509 12.34669 3222 ft 261 kts 205°
2026-05-08 20:22 55.50450 12.33652 3013 ft 260 kts 201°
2026-05-08 20:23 55.48182 12.32376 2570 ft 256 kts 197°
2026-05-08 20:23 55.46572 12.31017 2275 ft 257 kts 202°
2026-05-08 20:23 55.44912 12.30090 1987 ft 245 kts 175°
2026-05-08 20:23 55.43294 12.30784 2001 ft 238 kts 145°
2026-05-08 20:24 55.42195 12.32766 1986 ft 219 kts 114°
2026-05-08 20:24 55.41953 12.35286 1981 ft 205 kts 81°
2026-05-08 20:24 55.42589 12.37419 1974 ft 200 kts 44°
2026-05-08 20:24 55.43769 12.38649 2036 ft 191 kts 30°
2026-05-08 20:25 55.44941 12.39516 2015 ft 180 kts 30°
2026-05-08 20:25 55.46053 12.40537 1998 ft 176 kts 38°
2026-05-08 20:25 55.46721 12.41327 1992 ft 174 kts 42°
2026-05-08 20:25 55.48017 12.43063 2001 ft 175 kts 45°
2026-05-08 20:26 55.48941 12.44409 2010 ft 174 kts 46°
2026-05-08 20:26 55.49859 12.45805 2000 ft 173 kts 47°
2026-05-08 20:26 55.50762 12.47204 2001 ft 172 kts 47°
2026-05-08 20:26 55.51372 12.48154 1995 ft 172 kts 47°
2026-05-08 20:27 55.52254 12.49529 1912 ft 169 kts 47°
2026-05-08 20:27 55.53112 12.50863 1658 ft 159 kts 47°
2026-05-08 20:27 55.53936 12.52145 1450 ft 156 kts 47°
2026-05-08 20:27 55.54746 12.53406 1266 ft 155 kts 46°
2026-05-08 20:28 55.55554 12.54662 1063 ft 154 kts 47°
2026-05-08 20:28 55.56375 12.55934 838 ft 158 kts 45°
2026-05-08 20:28 55.57214 12.57203 600 ft 159 kts 44°
2026-05-08 20:28 55.58044 12.58485 388 ft 158 kts 45°
2026-05-08 20:29 55.58866 12.59777 180 ft 158 kts 44°
2026-05-08 20:29 55.59694 12.61053 34 ft 151 kts 45°
2026-05-08 20:29 55.60292 12.62010 32 ft 78 kts 41°
2026-05-08 20:29 55.60612 12.62504 35 ft 64 kts 41°
2026-05-08 20:30 55.60941 12.63014 33 ft 61 kts 41°
2026-05-08 20:30 55.61194 12.63404 36 ft 23 kts 41°
2026-05-08 20:30 55.61324 12.63606 35 ft 26 kts 40°
2026-05-08 20:30 55.61458 12.63812 33 ft 26 kts 41°
2026-05-08 20:31 55.61571 12.63989 33 ft 13 kts 41°
2026-05-08 20:31 55.61630 12.64094 36 ft 13 kts 61°
2026-05-08 20:31 55.61649 12.64275 33 ft 17 kts 86°
2026-05-08 20:31 55.61658 12.64483 32 ft 14 kts 78°
2026-05-08 20:32 55.61722 12.64618 32 ft 16 kts 32°
2026-05-08 20:32 55.61828 12.64739 32 ft 20 kts 33°
2026-05-08 20:32 55.61930 12.64857 32 ft 14 kts 33°
2026-05-08 20:32 55.62003 12.64964 32 ft 13 kts 78°
2026-05-08 20:33 55.61967 12.65135 31 ft 17 kts 122°
2026-05-08 20:33 55.61896 12.65324 30 ft 19 kts 125°
2026-05-08 20:33 55.61873 12.65382 30 ft 0 kts 124°
2026-05-08 20:34 55.61866 12.65402 30 ft 4 kts 123°
2026-05-08 20:34 55.61776 12.65647 33 ft 17 kts 123°
2026-05-08 20:35 55.61706 12.65837 35 ft 20 kts 123°
2026-05-08 20:35 55.61625 12.66054 34 ft 23 kts 125°
2026-05-08 20:35 55.61532 12.66300 32 ft 25 kts 123°
2026-05-08 20:35 55.61433 12.66570 32 ft 26 kts 123°
2026-05-08 20:36 55.61346 12.66807 33 ft 20 kts 123°
2026-05-08 20:36 55.61291 12.66962 33 ft 12 kts 117°
2026-05-08 20:36 55.61314 12.67082 33 ft 11 kts 31°
2026-05-08 20:36 55.61389 12.67126 32 ft 13 kts
2026-05-08 20:37 55.61490 12.67104 32 ft 16 kts 349°
2026-05-08 20:37 55.61592 12.67070 32 ft 13 kts 354°
2026-05-08 20:37 55.61620 12.67092 32 ft 0 kts 82°
2026-05-08 20:37 55.61626 12.67128 32 ft 5 kts 73°
2026-05-08 20:38 55.61633 12.67181 32 ft 3 kts 77°
2026-05-08 20:38 55.61637 12.67212 32 ft 0 kts 77°